Other Public Products
Issued by NWS Charleston, SC

Current Version | Previous Version | Graphics & Text | Print | Product List | Glossary On
Versions: 1 2 3 4 5 6 7 8 9 10 11 12 13 14 15 16 17 18 19 20 21 22 23 24 25 26 27 28 29 30 31 32 33 34 35 36 37 38 39 40 41 42 43 44 45 46 47 48 49 50
000
FPUS82 KCHS 211612
OPUCHS

TEST...KCHS/KSAV Gateway Observations...TEST
National Weather Service Charleston SC
1100 AM EST SAT JAN 21 2017

NOTE: "fair" indicates few or no clouds below 12,000 feet with no
significant weather and/or obstructions to visibility.

SCZ050-WAZ558-NCZ071-TXZ119-213-PAZ071-DCZ001-FLZ074-172-MI076-
NYZ176-178-MAZ016-IL014-TNZ027-NJZ106-GAZ044-MD014-211700-
...Gateway Observations for Charleston International...

CITY           SKY/WX    TMP DP  RH WIND       PRES   REMARKS
Chas Airport   RAIN      66  64  93 S7        29.91F FOG
Seattle        CLOUDY    40  37  89 CALM      29.32R
Charlotte      CLOUDY    55  53  93 VRB3      29.89S FOG
Dallas DFW     CLOUDY    58  55  90 SE6       29.55F
Dallas Love    CLOUDY    61  55  81 SE8       29.57F
Philladelphia  CLOUDY    45  44  97 W7        29.93R FOG
Wash National  CLOUDY    49  48  97 S7        29.91F
Baltimore      CLOUDY    47  47 100 W3        29.91F FOG
Miami          CLOUDY    78  67  68 SE10G17   30.00R
Detroit        PTSUNNY   46  46 100 CALM      29.69F FOG
Newark         CLOUDY    45  42  89 W7        29.89F
Laguardia      PTSUNNY   47  41  80 NW7       29.87F
J F K          CLOUDY    46  46 100 SW8       29.88F
Boston Logan   CLOUDY    44  39  82 W7        29.82F
Ft. Lauderdale PTSUNNY   79  66  64 S13       29.99R
Chicago O`Hare MOSUNNY   52  48  86 S14       29.51S
Chicago Midway MOSUNNY   52  47  83 S15G21    29.53S
Houston Bush   CLOUDY    68  66  93 S8        29.62F FOG
Houston Hobby  CLOUDY    70  65  84 S10G16    29.63S HAZE
Nashville      CLOUDY    64  51  62 S12       29.70F
Atlanta        HVY RAIN  60  59  96 NE14G22   29.77S FOG

$$

GAZ044-118-TXZ119-213-NCZ071-DCZ001-MDZ014-506-PAZ021-071-NJZ106-
NYZ176-178-MAZ106-OHZ011-021-055-MIZ076-KYZ091-ILZ014-INZ047-
MNZ060-211700-
...Gateway Observations for Savannah International...

CITY           SKY/WX    TMP DP  RH WIND       PRES   REMARKS
Savannah Arpt  CLOUDY    69  66  90 S9        29.88F
Atlanta        HVY RAIN  60  59  96 NE14G22   29.77S FOG
Charlotte      CLOUDY    55  53  93 VRB3      29.89S FOG
Dallas DFW     CLOUDY    58  55  90 SE6       29.55F
Houston Bush   CLOUDY    68  66  93 S8        29.62F FOG
Wash National  CLOUDY    49  48  97 S7        29.91F
Wash Dulles    FOG       47  46  97 S5        29.90F VSB 1/8
Baltimore      CLOUDY    47  47 100 W3        29.91F FOG
Philadelphia   CLOUDY    45  44  97 W7        29.93R FOG
Newark         CLOUDY    45  42  89 W7        29.89F
Laguardia      PTSUNNY   47  41  80 NW7       29.87F
J F K          CLOUDY    46  46 100 SW8       29.88F
Boston         CLOUDY    44  39  82 W7        29.82F
Pittsburg      MOSUNNY   55  50  83 S6        29.77F
Akron          MOSUNNY   56  49  77 S9        29.74F
Cleveland      PTSUNNY   60  50  69 S12       29.74F
Cincinnati     CLOUDY    57  52  83 S10       29.71S
Columbus         N/A     56  51  85 S12       29.74S
Detroit        PTSUNNY   46  46 100 CALM      29.69F FOG
Chicago O`Hare MOSUNNY   52  48  86 S14       29.51S
Minneapolis    DRIZZLE   36  34  92 E6        29.43R FOG     WCI  31
Indianapolis   PTSUNNY   55  51  86 S8        29.63F

$$




USA.gov is the U.S. government's official web portal to all federal, state and local government web resources and services.